Weather History for Oakes, ND

Change the Weather History Date:

Tuesday, October 4, 2011

  Actual Average (KABR) Record (KABR)
Temperature  
Mean Temperature 66 °F 51 °F  
Max Temperature 82 °F 64 °F 93 °F (1975)
Min Temperature 50 °F 38 °F 13 °F (1894)
Degree Days  
Heating Degree Days 0 15  
Month to date heating degree days 56  
Since 1 July heating degree days 330  
Cooling Degree Days 1 0  
Month to date cooling degree days 0  
Year to date cooling degree days 523  
Growing Degree Days 16 (Base 50)    
Moisture  
Dew Point 48 °F    
Average Humidity 55    
Maximum Humidity 87    
Minimum Humidity 32    
Precipitation  
Precipitation 0.00 in 0.07 in 2.98 in (1926)
Month to date precipitation 0.32  
Year to date precipitation 18.80  
Snow  
Snow 0.00 in - - ()
Month to date snowfall  
Since 1 July snowfall  
Snow Depth -    
Sea Level Pressure  
Sea Level Pressure 29.94 in    
Wind  
Wind Speed 5 mph (South)    
Max Wind Speed 5 mph    
Max Gust Speed -    
Visibility 10 miles    
Events      
T = Trace of Precipitation, MM = Missing Value Source: NWS Daily Summary

Daily Weather History Graph

Daily Weather History Graph

Search for Another Location

Airport:

Trip Planner

Search our weather history database for the weather conditions in past years. The results will help you decide how hot, cold, wet, or windy it might be!

Date:

Astronomy

Oct. 04, 2011 Rise Set
Actual Time 7:34 AM CDT 7:06 PM CDT
Civil Twilight 7:04 AM CDT 7:36 PM CDT
Nautical Twilight 6:29 AM CDT 8:11 PM CDT
Astronomical Twilight 5:54 AM CDT 8:46 PM CDT
Moon 3:30 PM CDT (10/4) No Moon Set
Length of Visible Light 12h 32m
Length of Day
11h 32m
First Quarter, 56% of the Moon is Illuminated
Oct 4
First Quarter
Oct 11
Full
Oct 19
Last Quarter
Oct 26
New
Nov 2
First Quarter

Hourly Weather History & Observations

Time (CDT) Temp. Dew Point Humidity Pressure Visibility Wind Dir Wind Speed Gust Speed Precip Events Conditions
12:15 AM 59.0 °F 46.4 °F 63% 30.01 in 10.0 mi North - - N/A   Mostly Cloudy
12:35 AM 59.0 °F 46.4 °F 63% 30.00 in 10.0 mi North - - N/A   Mostly Cloudy
12:55 AM 62.6 °F 46.4 °F 55% 30.01 in 10.0 mi North - - N/A   Mostly Cloudy
1:15 AM 60.8 °F 48.2 °F 63% 30.01 in 10.0 mi North - - N/A   Mostly Cloudy
1:35 AM 59.0 °F 48.2 °F 67% 30.00 in 10.0 mi North - - N/A   Mostly Cloudy
1:55 AM 59.0 °F 46.4 °F 63% 30.00 in 10.0 mi North - - N/A   Mostly Cloudy
2:15 AM 60.8 °F 46.4 °F 59% 30.00 in 10.0 mi North - - N/A   Mostly Cloudy
2:35 AM 62.6 °F 46.4 °F 55% 30.00 in 10.0 mi North - - N/A   Mostly Cloudy
2:55 AM 64.4 °F 46.4 °F 52% 30.00 in 10.0 mi North - - N/A   Mostly Cloudy
3:15 AM 64.4 °F 46.4 °F 52% 29.99 in 10.0 mi North - - N/A   Mostly Cloudy
3:35 AM 64.4 °F 46.4 °F 52% 29.99 in 10.0 mi North - - N/A   Overcast
3:55 AM 62.6 °F 46.4 °F 55% 29.99 in 10.0 mi North - - N/A   Overcast
4:15 AM 59.0 °F 46.4 °F 63% 29.99 in 10.0 mi North - - N/A   Overcast
4:35 AM 57.2 °F 46.4 °F 67% 29.99 in 10.0 mi North - - N/A   Overcast
4:55 AM 55.4 °F 46.4 °F 72% 29.99 in 10.0 mi North - - N/A   Overcast
5:15 AM 55.4 °F 46.4 °F 72% 29.99 in 10.0 mi North - - N/A   Mostly Cloudy
5:35 AM 53.6 °F 46.4 °F 77% 29.99 in 10.0 mi North - - N/A   Mostly Cloudy
5:55 AM 53.6 °F 46.4 °F 77% 29.99 in 10.0 mi North - - N/A   Scattered Clouds
6:15 AM 51.8 °F 46.4 °F 82% 29.99 in 10.0 mi North - - N/A   Partly Cloudy
6:35 AM 50.0 °F 46.4 °F 87% 29.99 in 10.0 mi North - - N/A   Clear
7:15 AM 50.0 °F 46.4 °F 87% 29.99 in 10.0 mi North - - N/A   Clear
7:35 AM 50.0 °F 44.6 °F 82% 30.00 in 10.0 mi North - - N/A   Clear
7:55 AM 50.0 °F 44.6 °F 82% 30.00 in 10.0 mi North - - N/A   Clear
8:15 AM 51.8 °F 46.4 °F 82% 30.00 in 10.0 mi North - - N/A   Clear
8:35 AM 55.4 °F 48.2 °F 77% 30.00 in 10.0 mi North - - N/A   Clear
8:55 AM 57.2 °F 48.2 °F 72% 29.99 in 10.0 mi North - - N/A   Clear
9:15 AM 59.0 °F 46.4 °F 63% 30.00 in 10.0 mi North - - N/A   Partly Cloudy
9:35 AM 62.6 °F 46.4 °F 55% 30.00 in 10.0 mi North - - N/A   Mostly Cloudy
9:55 AM 64.4 °F 46.4 °F 52% 30.00 in 10.0 mi North - - N/A   Overcast
10:15 AM 66.2 °F 46.4 °F 49% 29.99 in 10.0 mi North - - N/A   Mostly Cloudy
10:35 AM 66.2 °F 46.4 °F 49% 29.98 in 10.0 mi North - - N/A   Partly Cloudy
10:55 AM 68.0 °F 46.4 °F 46% 29.98 in 10.0 mi North - - N/A   Clear
11:35 AM 69.8 °F 48.2 °F 46% 29.97 in 10.0 mi North - - N/A   Clear
11:55 AM 71.6 °F 48.2 °F 43% 29.96 in 10.0 mi North - - N/A   Clear
12:15 PM 73.4 °F 48.2 °F 41% 29.96 in 10.0 mi North - - N/A   Clear
12:35 PM 75.2 °F 48.2 °F 38% 29.95 in 10.0 mi North - - N/A   Clear
1:15 PM 77.0 °F 50.0 °F 39% 29.94 in 10.0 mi North - - N/A   Clear
1:35 PM 77.0 °F 50.0 °F 39% 29.93 in 10.0 mi North - - N/A   Clear
2:15 PM 80.6 °F 50.0 °F 34% 29.90 in 10.0 mi North 4.6 mph - N/A   Clear
2:55 PM 82.4 °F 50.0 °F 32% 29.89 in 10.0 mi North - - N/A   Clear
3:15 PM 82.4 °F 50.0 °F 32% 29.89 in 10.0 mi North - - N/A   Clear
3:35 PM 80.6 °F 50.0 °F 34% 29.89 in 10.0 mi North - - N/A   Clear
4:15 PM 82.4 °F 50.0 °F 32% 29.87 in 10.0 mi North - - N/A   Clear
4:35 PM 82.4 °F 50.0 °F 32% 29.87 in 10.0 mi North - - N/A   Clear
4:55 PM 82.4 °F 50.0 °F 32% 29.85 in 10.0 mi North 4.6 mph - N/A   Clear
5:15 PM 82.4 °F 50.0 °F 32% 29.85 in 10.0 mi North 4.6 mph - N/A   Clear
5:35 PM 82.4 °F 50.0 °F 32% 29.85 in 10.0 mi North 4.6 mph - N/A   Clear
5:55 PM 82.4 °F 51.8 °F 35% 29.85 in 10.0 mi North 4.6 mph - N/A   Clear
6:15 PM 80.6 °F 51.8 °F 37% 29.85 in 10.0 mi North 4.6 mph - N/A   Clear
6:35 PM 77.0 °F 51.8 °F 41% 29.85 in 10.0 mi North 4.6 mph - N/A   Clear
6:55 PM 75.2 °F 51.8 °F 44% 29.85 in 10.0 mi North 4.6 mph - N/A   Clear
7:15 PM 71.6 °F 51.8 °F 50% 29.85 in 9.0 mi North 4.6 mph - N/A   Clear
7:35 PM 71.6 °F 51.8 °F 50% 29.85 in 9.0 mi North 4.6 mph - N/A   Clear
7:55 PM 68.0 °F 51.8 °F 56% 29.85 in 10.0 mi North 4.6 mph - N/A   Clear
8:15 PM 66.2 °F 51.8 °F 60% 29.86 in 10.0 mi North 4.6 mph - N/A   Clear
8:35 PM 62.6 °F 50.0 °F 63% 29.85 in 10.0 mi North 4.6 mph - N/A   Clear
8:55 PM 64.4 °F 50.0 °F 59% 29.85 in 10.0 mi North 4.6 mph - N/A   Clear
9:35 PM 64.4 °F 50.0 °F 59% 29.85 in 10.0 mi North 4.6 mph - N/A   Clear
9:55 PM 60.8 °F 50.0 °F 68% 29.84 in 10.0 mi North 4.6 mph - N/A   Clear
10:15 PM 66.2 °F 50.0 °F 56% 29.84 in 10.0 mi North 4.6 mph - N/A   Clear
10:35 PM 66.2 °F 50.0 °F 56% 29.84 in 10.0 mi North 4.6 mph - N/A   Clear
10:55 PM 66.2 °F 50.0 °F 56% 29.84 in 10.0 mi North 4.6 mph - N/A   Clear
11:15 PM 66.2 °F 50.0 °F 56% 29.84 in 10.0 mi North 4.6 mph - N/A   Clear
11:35 PM 66.2 °F 50.0 °F 56% 29.84 in 10.0 mi North 4.6 mph - N/A   Clear
11:55 PM 66.2 °F 50.0 °F 56% 29.84 in 10.0 mi North 4.6 mph - N/A   Clear